sat.trackr.live / text

‹ back to catalog

ETRSS-1

NORAD 44880 · 2019-093B

PAYLOAD ACTIVE UNKNOWN

§ Identity

Operator
Country
ETH
Launch date
2019-12-20
Launch site
TAISC
Launch vehicle
Mass (kg)
RCS (m²)

External: N2YO · Heavens-Above · Gunter

§ Orbital elements

Epoch: 2026-09-15T22:08:54.641760Z

Period
96.24 min
Inclination
97.7784°
Eccentricity
0.0012873
Mean motion
14.96282543 rev/d
Perigee alt
569.4 km
Apogee alt
587.3 km
Semi-major
6,956.5 km
B*
2.4703e-4
RAAN
342.6510°
Arg perigee
108.6480°
Mean anomaly
251.6141°
Rev number
36,562

§ Raw data

ETRSS-11 44880U 19093B   26258.92285465  .00002736  00000+0  24703-3 0  99962 44880  97.7784 342.6510 0012873 108.6480 251.6141 14.96282543365623

JSON: /api/v1/satellites/44880 · /tle

For live sub-satellite position, see the globe view (requires WebGL).

§ Visibility from observer

Set your observer location to see the next 7 days of passes ≥ 10°. The values pass through the URL so the page stays shareable.

No JS? Fill the form by hand. The geolocation button needs JavaScript.

§ Radio — SatNOGS DB

ModeDescriptionDownlinkUplink
FM S-band telemetry 2.264 GHz

1 transmitter · refreshed weekly from db.satnogs.org